Home   Weather   Woodstock   Past weeks

Flag for USA Past Weather in Woodstock, New York, USA — Yesterday and Last 2 Weeks

63 °F

Low clouds.

Feels Like: 63 °F
Forecast: 58 / 69 °F
Wind: No wind

Location: Dutchess County Airport

Current Time: Oct 21, 2016 at 7:55:00 PM

Latest Report: Oct 21, 2016 at 6:53 PM

Visibility: 10 mi

Pressure: 29.49 "Hg

Humidity: 100%

Dew Point: 63 °F

Location of WoodstockLocation

Past Weather in Woodstock — Graph


Woodstock Temperature Yesterday

Maximum temperature yesterday: 70 °F (at 1:53 PM)
Minimum temperature yesterday: 44 °F (at 3:53 AM)
Average temperature yesterday: 58 °F

High & Low Weather Summary for the Past Weeks

High84 °F (Oct 18, 2:53 PM)100% (Oct 12, 5:53 AM)30.48 "Hg (Oct 12, 5:53 AM)
Low28 °F (Oct 15, 4:53 AM)29% (Oct 10, 2:53 PM)29.51 "Hg (Oct 21, 5:56 PM)
Average56 °F75%30.12 "Hg
* Reported Oct 6 5:53 PM — Oct 21 5:56 PM, Woodstock, Weather by CustomWeather, © 2016

Note: Actual official high and low records may vary slightly from our data, if they occured in-between our weather recording intervals... More about our weather records


Woodstock Weather History for the Previous 24 Hours

Scroll right to see more
Time TempWeatherWind HumidityBarometerVisibility
5:56 PM
Fri, Oct 21
67 °FLow clouds.No wind90%29.51 "Hg10 mi
4:53 PM67 °FPassing clouds.3 mph90%29.52 "Hg10 mi
3:53 PM66 °FLight rain. Fog.6 mph96%29.56 "Hg6 mi
2:53 PM66 °FRain. Mostly cloudy.3 mph96%29.60 "Hg1 mi
1:53 PM66 °FRain. Fog.3 mph96%29.63 "Hg1 mi
12:57 PM66 °FLight rain. Fog.No wind96%29.67 "Hg1 mi
11:53 AM67 °FLight rain. Fog.5 mph97%29.69 "Hg2 mi
11:01 AM67 °FLight rain. Fog.5 mph93%29.72 "Hg2 mi
9:53 AM69 °FMostly cloudy.3 mph81%29.73 "Hg10 mi
9:00 AM68 °FBroken clouds.5 mph82%29.77 "Hg10 mi
7:53 AM63 °FMostly cloudy.No wind97%29.78 "Hg9 mi
6:53 AM63 °FPartly cloudy.5 mph93%29.79 "Hg10 mi
5:53 AM59 °FClear.3 mph100%29.81 "Hg10 mi
5:04 AM62 °FPassing clouds.3 mph96%29.84 "Hg10 mi
3:53 AM64 °FMostly cloudy.5 mph94%29.85 "Hg10 mi
2:53 AM64 °FMostly cloudy.10 mph90%29.87 "Hg10 mi
1:53 AM64 °FOvercast.6 mph90%29.89 "Hg10 mi
12:53 AM63 °FOvercast.8 mph90%29.91 "Hg10 mi
11:53 PM
Thu, Oct 20
63 °FOvercast.6 mph87%29.94 "Hg10 mi
10:53 PM63 °FOvercast.9 mph87%29.96 "Hg10 mi
9:53 PM63 °FOvercast.8 mph87%29.98 "Hg10 mi
8:53 PM62 °FOvercast.10 mph86%29.99 "Hg10 mi
7:53 PM63 °FMostly cloudy.10 mph84%30.01 "Hg10 mi
Weather by CustomWeather, © 2016

See weather overviewHow to use our weather pages